Volver al catálogo

SL-8 DEB *

ActivoLEO
NORAD 14808·DEBRIS·🇷🇺 Russia

Lanzado Jul 1, 1980 desde Plesetsk Cosmodrome

Loading…

Próximos Pases (próximas 24 horas)

TLE

ActualizadoSource: Space-Track

Época: Sep 14, 2026, 00:25 UTC

1 14808U 80056C   26257.01788205  .00000737  00000-0  19549-3 0  9991
2 14808  74.0345  98.6979 0012102  34.6569 117.3805 14.50415441241824

Sigue SL-8 DEB * en tiempo real con AllMySat

Download on the App Store